Location: Casone le Fosse
(44.6547°N, 12.1103°E)
Time: 04:25:51
(UTC+00:00)

Cosmos 1553 Rocket - Pass Details

Date: 29 October 2020
Orbit: 940 x 1009 km, 82.9° (Epoch: 01 December)

Event Time Altitude Azimuth Distance (km) Brightness Sun altitude
Rises 17:40:34 0° 194° (SSW) 3,712 7.2 -17.6°
Reaches altitude 10° 17:43:07 10° 196° (SSW) 2,759 6.6 -18.1°
Maximum altitude 17:49:26 69° 280° (W) 1,055 4.3 -19.2°
Drops below altitude 10° 17:55:41 10° 4° (N) 2,733 6.3 -20.3°
Sets 17:58:13 0° 7° (N) 3,674 7.0 -20.8°
